Macatuba, Brazil
Current Conditions -  °F | °C
As of 4:00 PM on Saturday 25 Oct 2014 (Local Time) from SBBU Reporting Station
Light Rain Light Rain  
Wind Chill: 73°   Ceiling: 1500
Heat Index: 73°   Visibility: 4mi
Dew Point: 72°   Wind: 3mph
Humidity: 94%   Direction: 20°NNE
Pressure: 29.97"   Gusts: NA
Location:  22.5°S, 48.71°W
Report Text: SBBU 251800Z 02003KT 7000 -RA SCT009 BKN015 23/22 Q1015
Loading
Personal Weather Stations






























Interactive Weather Map
Tropical Storm Tracking
New forecast layout! Learn more

10-Day Weather Forecast

Advertisements
Track Severe Weather on mobile